Regional Weather Roundup
Issued by NWS

Home | Current Version | Previous Version | Text Only | Print | Product List | Glossary Off
Versions: 1 2 3 4 5 6 7 8 9 10 11 12 13 14 15 16 17 18 19 20 21 22 23 24 25 26 27 28

000
ASUS45 KTFX 152210
RWRMT
MONTANA REGIONAL WEATHER ROUNDUP
NATIONAL WEATHER SERVICE GREAT FALLS MT
400 PM MDT SUN OCT 15 2017

NOTE: "FAIR" INDICATES FEW OR NO CLOUDS BELOW 12000 FEET WITH NO
SIGNIFICANT WEATHER AND/OR OBSTRUCTIONS TO VISIBILITY.

MTZ001>007-043-152300-
WEST OF THE DIVIDE

CITY           SKY/WX    TMP DP  RH WIND       PRES   REMARKS
KALISPELL      SUNNY     55  32  41 VRB3      30.31F
MISSOULA       SUNNY     59  29  31 W5        30.31F
BUTTE          SUNNY     58  28  32 SW8       30.33F
MULLAN PASS    SUNNY     43  31  62 CALM      30.34F
$$

MTZ008-052>055-152300-
SOUTHWEST MONTANA

CITY           SKY/WX    TMP DP  RH WIND       PRES   REMARKS
BOZEMAN        SUNNY     60  28  29 CALM      30.30F
DILLON         SUNNY     60  28  29 SW12      30.33F
W YELLOWSTONE  SUNNY     46  21  36 SW14      30.46S
ENNIS          SUNNY     59  27  29 S21G26    30.39F
$$

MTZ009-010-012-014-046-048-049-054-152300-
EAST SLOPES AND CENTRAL MONTANA

CITY           SKY/WX    TMP DP  RH WIND       PRES   REMARKS
CUT BANK       MOSUNNY   57  31  37 W30G39    30.12F
GREAT FALLS    SUNNY     62  30  29 SW24G32   30.17F
MALMSTROM AFB  SUNNY     62  31  30 SW24G31   30.18F
HELENA         SUNNY     65  32  29 W15       30.25F
$$

MTZ011-013-016-021-045-047-050-051-152300-
NORTH CENTRAL MONTANA

CITY           SKY/WX    TMP DP  RH WIND       PRES   REMARKS
HAVRE          SUNNY     65  32  29 W20       30.09F
N BAR RANCH      N/A     59  25  27 VRB5      30.22F
$$

MTZ017>020-022>027-061-062-152300-
NORTHEAST MONTANA

CITY           SKY/WX    TMP DP  RH WIND       PRES   REMARKS
GLASGOW        SUNNY     59  30  33 W10G20    30.15F
JORDAN           N/A     60  30  32 W12       30.18F
SIDNEY         SUNNY     59  30  33 W14       30.18
WOLF POINT     SUNNY     61  28  28 W16G24    30.17F
MALTA          SUNNY     63  28  27 W9        30.13F
$$

MTZ028>42-056>058-152300-
SOUTHCENTRAL AND SOUTHEAST MONTANA

CITY           SKY/WX    TMP DP  RH WIND       PRES   REMARKS
BAKER          SUNNY     57  29  34 W22G30    30.23F
BILLINGS       MOSUNNY   62  28  27 SW16G23   30.23F
LIVINGSTON     SUNNY     63  29  27 W20G31    30.27F
MILES CITY     SUNNY     61  30  31 W12       30.22F
$$

REGIONAL REPORTS...DAKOTAS

CITY           SKY/WX    TMP DP  RH WIND       PRES   REMARKS
WILLISTON      SUNNY     58  30  34 W15G24    30.16S
MINOT          SUNNY     56  29  35 W17G30    30.13R
DICKINSON      SUNNY     57  28  33 W16G24    30.18F
BEACH            N/A     57  25  28 W18G26    30.23F
CROSBY           N/A     57  23  26 W21       30.13S
TIOGA            N/A     55  28  35 W15G28    30.16S
BISMARCK       SUNNY     58  30  34 NW21G26   30.18S
GRAND FORKS    CLOUDY    52  36  54 NW10      30.09R
FARGO          CLOUDY    52  34  50 W6        30.12R
BUFFALO SD       N/A     59  27  29 W20G30    30.19F
RAPID CITY     SUNNY     61  27  27 N13       30.29F
$$

REGIONAL REPORTS...WYOMING/IDAHO/WASHINGTON

CITY           SKY/WX    TMP DP  RH WIND       PRES   REMARKS
GILLETTE       SUNNY     57  24  28 S9        30.30F
SHERIDAN       SUNNY     60  26  27 E9        30.28F
BUFFALO WY     SUNNY     56  21  25 SE9       30.30F
CODY           SUNNY     61  25  25 E8        30.31F
YELLOWSTONE LA   N/A     43  28  55 VRB5      30.49F
IDAHO FALLS    SUNNY     51  24  34 CALM      30.47F
SALMON         SUNNY     56  25  30 VRB3      30.37F
BOISE          SUNNY     59  25  27 E6        30.39F
SPOKANE        MOSUNNY   59  32  36 CALM      30.31F
$$

REGIONAL REPORTS...ALBERTA

CITY           SKY/WX    TMP DP  RH WIND       PRES   REMARKS
EDMONTON       PTSUNNY   59  32  36 S8        29.78F
CALGARY        PTSUNNY   57  23  26 W16G25    29.93F
LETHBRIDGE     MOSUNNY   59  32  36 W41G53    30.01S
MEDICINE HAT   MOSUNNY   63  32  31 SW16      29.99F
$$

REGIONAL REPORTS...SASKATCHEWAN

CITY           SKY/WX    TMP DP  RH WIND       PRES   REMARKS
SWIFT CURRENT  SUNNY     57  27  30 W15G21    30.04F
REGINA         MOSUNNY   54  28  37 W14       30.08F
SASKATOON      PTSUNNY   55  32  41 SW13      30.00F
$$




USA.gov is the U.S. government's official web portal to all federal, state and local government web resources and services.